TimeCDT,TemperatureF,Dew PointF,Humidity,Sea Level PressureIn,VisibilityMPH,Wind Direction,Wind SpeedMPH,Gust SpeedMPH,PrecipitationIn,Events,Conditions,WindDirDegrees,DateUTC
12:15 AM,51.8,44.6,76,29.97,10.0,Calm,Calm,-,N/A,,Clear,0,2012-10-03 05:15:00
12:35 AM,50.0,44.6,82,29.97,10.0,Calm,Calm,-,N/A,,Clear,0,2012-10-03 05:35:00
12:55 AM,48.2,44.6,87,29.97,10.0,Calm,Calm,-,N/A,,Clear,0,2012-10-03 05:55:00
1:15 AM,50.0,44.6,82,29.97,10.0,Calm,Calm,-,N/A,,Clear,0,2012-10-03 06:15:00
1:16 AM,50.0,44.6,82,29.97,10.0,Calm,Calm,-,N/A,,Clear,0,2012-10-03 06:16:00
1:35 AM,48.2,42.8,82,29.98,10.0,ESE,3.5,-,N/A,,Clear,110,2012-10-03 06:35:00
1:55 AM,48.2,42.8,82,29.98,10.0,ESE,3.5,-,N/A,,Clear,110,2012-10-03 06:55:00
2:35 AM,48.2,42.8,82,29.98,10.0,East,3.5,-,N/A,,Clear,100,2012-10-03 07:35:00
2:55 AM,48.2,42.8,82,29.98,10.0,Calm,Calm,-,N/A,,Clear,0,2012-10-03 07:55:00
3:15 AM,48.2,42.8,82,29.98,10.0,Calm,Calm,-,N/A,,Clear,0,2012-10-03 08:15:00
3:36 AM,48.2,42.8,82,29.97,8.0,Calm,Calm,-,N/A,,Clear,0,2012-10-03 08:36:00
3:55 AM,48.2,42.8,82,29.97,10.0,Calm,Calm,-,N/A,,Clear,0,2012-10-03 08:55:00
4:15 AM,48.2,42.8,82,29.98,10.0,East,4.6,-,N/A,,Clear,90,2012-10-03 09:15:00
4:55 AM,46.4,41.0,81,29.99,10.0,East,4.6,-,N/A,,Clear,90,2012-10-03 09:55:00
5:15 AM,48.2,42.8,82,29.99,10.0,East,4.6,-,N/A,,Clear,80,2012-10-03 10:15:00
5:56 AM,48.2,42.8,82,30.00,10.0,East,4.6,-,N/A,,Clear,90,2012-10-03 10:56:00
6:35 AM,48.2,42.8,82,30.00,10.0,East,4.6,-,N/A,,Clear,80,2012-10-03 11:35:00
7:15 AM,48.2,42.8,82,30.01,10.0,East,4.6,-,N/A,,Clear,80,2012-10-03 12:15:00
7:35 AM,48.2,42.8,82,30.01,10.0,Calm,Calm,-,N/A,,Clear,0,2012-10-03 12:35:00
7:55 AM,48.2,42.8,82,30.01,10.0,East,3.5,-,N/A,,Clear,90,2012-10-03 12:55:00
8:16 AM,50.0,44.6,82,30.02,10.0,East,4.6,-,N/A,,Clear,80,2012-10-03 13:16:00
8:35 AM,51.8,44.6,76,30.02,10.0,East,3.5,-,N/A,,Clear,100,2012-10-03 13:35:00
9:35 AM,60.8,48.2,63,30.04,10.0,South,6.9,-,N/A,,Clear,190,2012-10-03 14:35:00
9:55 AM,64.4,50.0,59,30.05,10.0,South,6.9,-,N/A,,Clear,180,2012-10-03 14:55:00
10:35 AM,68.0,50.0,52,30.05,10.0,SSW,8.1,-,N/A,,Clear,210,2012-10-03 15:35:00
10:55 AM,71.6,51.8,50,30.05,10.0,SW,9.2,-,N/A,,Clear,230,2012-10-03 15:55:00
11:15 AM,71.6,50.0,46,30.05,10.0,SW,8.1,-,N/A,,Clear,220,2012-10-03 16:15:00
11:35 AM,73.4,48.2,41,30.05,10.0,SSW,8.1,-,N/A,,Clear,210,2012-10-03 16:35:00
11:55 AM,73.4,48.2,41,30.04,10.0,South,10.4,-,N/A,,Clear,190,2012-10-03 16:55:00
12:15 PM,73.4,48.2,41,30.04,10.0,SSW,9.2,-,N/A,,Clear,200,2012-10-03 17:15:00
12:55 PM,75.2,51.8,44,30.03,10.0,WSW,8.1,17.3,N/A,,Mostly Cloudy,240,2012-10-03 17:55:00
1:15 PM,75.2,51.8,44,30.02,10.0,South,10.4,20.7,N/A,,Mostly Cloudy,190,2012-10-03 18:15:00
1:16 PM,75.2,51.8,44,30.02,10.0,South,9.2,20.7,N/A,,Mostly Cloudy,190,2012-10-03 18:16:00
1:35 PM,75.2,51.8,44,30.01,10.0,SW,9.2,23.0,N/A,,Mostly Cloudy,220,2012-10-03 18:35:00
1:55 PM,73.4,51.8,47,30.00,10.0,South,8.1,18.4,N/A,,Scattered Clouds,190,2012-10-03 18:55:00
2:15 PM,75.2,51.8,44,29.99,10.0,SSW,12.7,-,N/A,,Scattered Clouds,210,2012-10-03 19:15:00
2:16 PM,75.2,51.8,44,29.99,10.0,South,13.8,19.6,N/A,,Scattered Clouds,190,2012-10-03 19:16:00
2:35 PM,75.2,51.8,44,29.98,10.0,SSW,13.8,19.6,N/A,,Partly Cloudy,200,2012-10-03 19:35:00
2:55 PM,75.2,51.8,44,29.98,10.0,South,15.0,21.9,N/A,,Mostly Cloudy,180,2012-10-03 19:55:00
3:15 PM,75.2,51.8,44,29.98,10.0,South,12.7,19.6,N/A,,Scattered Clouds,180,2012-10-03 20:15:00
3:35 PM,73.4,51.8,47,29.98,10.0,South,11.5,-,N/A,,Partly Cloudy,190,2012-10-03 20:35:00
3:55 PM,75.2,51.8,44,29.98,10.0,South,15.0,-,N/A,,Mostly Cloudy,170,2012-10-03 20:55:00
4:15 PM,75.2,51.8,44,29.98,10.0,SSW,9.2,20.7,N/A,,Mostly Cloudy,200,2012-10-03 21:15:00
4:55 PM,73.4,51.8,47,29.98,10.0,SW,9.2,18.4,N/A,,Scattered Clouds,220,2012-10-03 21:55:00
5:15 PM,73.4,51.8,47,29.98,10.0,SSW,10.4,-,N/A,,Scattered Clouds,210,2012-10-03 22:15:00
5:55 PM,73.4,50.0,44,29.99,10.0,SSW,12.7,-,N/A,,Partly Cloudy,200,2012-10-03 22:55:00
6:15 PM,73.4,50.0,44,29.99,10.0,South,12.7,-,N/A,,Clear,190,2012-10-03 23:15:00
6:55 PM,68.0,48.2,49,30.00,10.0,South,9.2,-,N/A,,Clear,190,2012-10-03 23:55:00
7:15 PM,69.8,48.2,46,30.00,10.0,South,5.8,-,N/A,,Clear,170,2012-10-04 00:15:00
7:35 PM,68.0,48.2,49,30.01,10.0,South,5.8,-,N/A,,Scattered Clouds,170,2012-10-04 00:35:00
7:56 PM,66.2,50.0,56,30.01,10.0,SSE,5.8,-,N/A,,Partly Cloudy,160,2012-10-04 00:56:00
8:35 PM,64.4,50.0,59,30.02,10.0,SSE,6.9,-,N/A,,Partly Cloudy,160,2012-10-04 01:35:00
9:35 PM,64.4,50.0,59,30.05,10.0,SSE,5.8,-,N/A,,Clear,160,2012-10-04 02:35:00
9:55 PM,62.6,50.0,63,30.06,10.0,SSE,8.1,-,N/A,,Clear,160,2012-10-04 02:55:00
10:16 PM,62.6,51.8,68,30.07,10.0,SSE,6.9,-,N/A,,Clear,160,2012-10-04 03:16:00
10:35 PM,62.6,51.8,68,30.07,10.0,SSE,8.1,-,N/A,,Clear,160,2012-10-04 03:35:00
10:55 PM,62.6,51.8,68,30.07,10.0,SSE,8.1,-,N/A,,Clear,160,2012-10-04 03:55:00
11:15 PM,62.6,51.8,68,30.07,10.0,SSE,9.2,-,N/A,,Clear,160,2012-10-04 04:15:00
11:35 PM,62.6,51.8,68,30.07,10.0,South,6.9,-,N/A,,Clear,170,2012-10-04 04:35:00
11:55 PM,62.6,51.8,68,30.07,10.0,South,9.2,-,N/A,,Clear,170,2012-10-04 04:55:00